Location: Newark
(60.6561°N, 46.5772°E)
Time: 02:29:54
(UTC+00:00)

Tiros 1 despin weight - Pass Details

Date: 26 October 2019
Orbit: 594 x 642 km, 48.2° (Epoch: 12 November)

Event Time Altitude Azimuth Distance (km) Brightness Sun altitude
Rises 21:17:18 0° 232° (SW) 2,922 - -41.4°
Reaches altitude 10° 21:20:17 10° 212° (SSW) 2,022 - -41.3°
Maximum altitude 21:23:17 17° 172° (S) 1,609 - -41.2°
Drops below altitude 10° 21:26:18 10° 132° (SE) 2,034 - -41.1°
Sets 21:29:19 0° 113° (ESE) 2,946 - -41.0°
